Flag for Germany Weather past 2 weeks in Haltern am See, North Rhine-Westphalia, Germany

37 °F

Partly sunny.

Feels Like: 28 °F
Forecast: 37 / 42 °F
Wind: 15 mph from East

Location: Dortmund / Wickede

Current Time: Oct 13, 2015 at 12:00:38 PM

Latest Report: Oct 13, 2015 at 11:20 AM

Visibility: 4 mi

Pressure: 30.04 "Hg

Humidity: 81%

Dew point: 32 °F

Location of Haltern am SeeLocation

Historic Weather in Haltern am See — Graph


Haltern am See temperature yesterday

Maximum temperature yesterday: 48 °F (at 3:20 PM)
Minimum temperature yesterday: 30 °F (at 6:50 AM)
Average temperature yesterday: 40 °F

Past Weeks' High & Low Weather Summary

High68 °F (Oct 3, 2:50 PM)94% (Oct 8, 1:20 PM)30.66 "Hg (Oct 8, 1:20 PM)
Low30 °F (Oct 12, 6:50 AM)39% (Sep 30, 4:20 PM)29.59 "Hg (Oct 6, 6:20 AM)
Average52 °F72%30.14 "Hg
* Reported Sep 28 10:20 AM — Oct 13 10:50 AM, Haltern am See, Weather by CustomWeather, © 2015

Note: Actual official high and low records may vary slightly from our data, if they occured in-between our weather recording intervals... More about our weather records


Haltern am See weather history for previous 24 hours

Time TempWeatherWind HumidityBarometerVisibility
10:50 AM
Tue, Oct 13
37 °FPartly sunny.14 mph81%30.04 "Hg5 mi
10:20 AM36 °FScattered clouds.12 mph87%30.04 "Hg5 mi
9:50 AM34 °FClear.9 mph87%30.04 "Hg5 mi
9:20 AM34 °FClear.7 mph87%30.01 "Hg4 mi
8:50 AM32 °FSunny.6 mph93%30.01 "Hg10 mi
8:20 AM32 °FClear.5 mph87%30.01 "Hg10 mi
7:50 AM30 °FClear.6 mph93%30.01 "Hg10 mi
7:20 AM30 °FClear.5 mph93%30.01 "Hg10 mi
6:50 AM30 °FClear.6 mph93%30.01 "Hg10 mi
6:20 AM30 °FClear.5 mph93%30.01 "Hg10 mi
5:50 AM30 °FClear.5 mph93%29.98 "Hg10 mi
5:20 AM30 °FClear.2 mph93%30.01 "Hg10 mi
10:50 PM
Mon, Oct 12
36 °FClear.5 mph81%30.04 "Hg10 mi
10:20 PM37 °FClear.5 mph81%30.04 "Hg10 mi
9:50 PM37 °FClear.6 mph81%30.04 "Hg10 mi
9:20 PM39 °FClear.5 mph75%30.04 "Hg10 mi
8:50 PM41 °FClear.6 mph70%30.04 "Hg10 mi
8:20 PM41 °FClear.5 mph70%30.04 "Hg10 mi
7:50 PM43 °FClear.6 mph66%30.04 "Hg10 mi
7:20 PM43 °FSunny.5 mph66%30.04 "Hg10 mi
6:50 PM45 °FSunny.6 mph61%30.04 "Hg10 mi
6:20 PM45 °FSunny.8 mph61%30.04 "Hg10 mi
5:50 PM46 °FSunny.10 mph57%30.04 "Hg10 mi
5:20 PM46 °FSunny.12 mph57%30.04 "Hg10 mi
4:50 PM46 °FPassing clouds.10 mph57%30.04 "HgN/A
4:20 PM46 °FSunny.12 mph57%30.07 "Hg10 mi
3:50 PM48 °FPassing clouds.10 mph58%30.07 "HgN/A
3:20 PM48 °FSunny.9 mph58%30.07 "Hg10 mi
2:50 PM46 °FSunny.9 mph57%30.07 "Hg10 mi
2:20 PM46 °FPassing clouds.8 mph62%30.09 "HgN/A
1:50 PM46 °FPassing clouds.7 mph53%30.09 "HgN/A
1:20 PM45 °FPassing clouds.7 mph57%30.09 "HgN/A
12:50 PM45 °FSunny.9 mph57%30.09 "Hg10 mi
12:20 PM43 °FSunny.8 mph61%30.09 "Hg10 mi
Weather by CustomWeather, © 2015

See weather overviewHow to use our weather pages